[[{"header":{"parameterUnit":"m.s-1","parameterCategory":1,"la1":30.2992,"la2":30.254,"lo1":-89.0895,"lo2":-89.0443,"dy":0.0025,"dx":0.0025,"nx":19,"ny":19,"refTime":"2026-03-24T03:00:00:Z","depth":0,"parameterNumber":2,"parameterNumberName":"U-component_of_WINDS"},"data":[0,0,0,-2.9943,-2.9947,-3.0125,-3.0125,-3.0351,-3.0353,0,0,0,0,0,0,0,0,0,0,0,-2.9888,-2.9889,-2.9942,-2.9947,-3.0125,-3.0125,-3.0351,-3.0353,0,0,0,0,0,0,0,0,0,0,0,-2.9887,-2.9889,-2.9891,-2.9948,-3.0124,-3.0125,-3.035,-3.0217,0,0,0,0,0,0,0,0,0,0,-3.0045,-2.9991,-2.9888,-2.9891,-2.9949,-3.0124,-3.0126,-3.0211,-3.0225,-3.027,0,-3.0307,0,-3.0334,-3.0368,-3.0369,0,0,0,-2.9949,-2.9979,-3.0029,-2.9891,-2.995,-3.0124,-3.0045,-3.0219,-3.0236,-3.0289,-3.031,-3.0319,-3.0337,-3.037,-3.0371,-3.0617,-3.0618,0,0,-2.9939,-2.9919,-3.0017,-3.004,-3.0011,-3.0039,-3.005,-3.0229,-3.0251,-3.0311,-3.0324,-3.0341,-3.0371,-3.0373,-3.0616,-3.0617,0,0,0,-2.9909,-2.9912,-2.9957,-3.003,-3.0062,-3.0044,-3.0057,-3.0243,-3.026,-3.0327,-3.0344,-3.0372,-3.0375,-3.0615,-3.0616,-3.0647,0,0,0,-2.9904,-2.9894,-2.9953,-2.9942,-3.0059,-3.0155,-3.0067,-3.0248,-3.0268,-3.0343,-3.0372,-3.0377,-3.0613,-3.0615,-3.0644,-3.0664,0,0,0,-2.9877,-2.9891,-2.9916,-2.9941,-3.0017,-3.0152,-3.0179,-3.0252,-3.0279,-3.0369,-3.0378,-3.0613,-3.0615,-3.0641,-3.0659,-3.0722,0,0,0,-2.9843,-2.9941,-2.9916,-3.0034,-3.0015,-3.017,-3.0178,-3.0296,-3.0377,-3.0373,-3.0614,-3.0616,-3.064,-3.0657,-3.0719,-3.0769,-3.0789,0,0,-2.9956,-2.9954,-3.0025,-3.0008,-3.0162,-3.0145,-3.0305,-3.0399,-3.0427,-3.0552,-3.0559,-3.0645,-3.0659,-3.0721,-3.091,-3.0925,0,0,0,-3.0054,-3.0105,-3.015,-3.0226,-3.0301,-3.0366,-3.0438,-3.0474,-3.0581,-3.0487,-3.0686,-3.0695,-3.0733,-3.0758,-3.0771,-3.0804,-3.0627,-3.0627,-3.0627,-3.0183,-3.0214,-3.0333,-3.0386,-3.046,-3.0534,-3.0597,-3.0658,-3.0667,-3.0714,-3.075,-3.0861,-3.089,-3.09,-3.0934,-3.0782,-3.0782,-3.0782,-3.0782,-3.035,-3.0426,-3.0438,-3.0557,-3.059,-3.0691,-3.0768,-3.0772,-3.0872,-3.0836,-3.0871,-3.0827,-3.0916,-3.0947,-3.0785,-3.0785,-3.0784,-3.0784,-3.0784,-3.0436,-3.0477,-3.0519,-3.0633,-3.0718,-3.077,-3.0865,-3.0893,-3.0919,-3.0953,-3.0994,-3.0994,-3.0995,-3.0971,-3.0972,-3.0972,-3.0973,-3.0973,-3.0973,-3.0507,-3.0553,-3.0629,-3.0718,-3.0771,-3.0845,-3.0923,-3.0977,-3.1043,-3.1055,-3.1056,-3.106,-3.092,-3.0882,-3.0979,-3.0978,-3.0977,-3.0977,-3.0976,-3.066,-3.063,-3.0747,-3.0801,-3.0909,-3.0991,-3.1026,-3.1134,-3.1182,-3.1229,-3.1228,-3.112,-3.112,-3.111,-3.1079,-3.1221,-3.1221,-3.1221,-3.1221,-3.073,-3.0734,-3.0861,-3.0944,-3.103,-3.1074,-3.1207,-3.127,-3.133,-3.1363,-3.1347,-3.131,-3.1298,-3.1305,-3.1291,-3.1262,-3.1448,-3.1448,-3.1449,-3.0826,-3.0839,-3.0946,-3.1004,-3.1091,-3.1165,-3.1292,-3.1389,-3.1451,-3.1458,-3.1389,-3.1379,-3.1319,-3.1298,-3.1299,-3.1276,-3.1224,0,0]},{"header":{"parameterUnit":"m.s-1","parameterCategory":1,"la1":30.2992,"la2":30.254,"lo1":-89.0895,"lo2":-89.0443,"dy":0.0025,"dx":0.0025,"nx":19,"ny":19,"refTime":"2026-03-24T03:00:00:Z","depth":0,"parameterNumber":3,"parameterNumberName":"V-component_of_WINDS"},"data":[0,0,0,1.8433,1.8434,1.8495,1.8496,1.8575,1.8576,0,0,0,0,0,0,0,0,0,0,0,1.8417,1.8417,1.8433,1.8434,1.8495,1.8496,1.8575,1.8576,0,0,0,0,0,0,0,0,0,0,0,1.8416,1.8417,1.8418,1.8435,1.8495,1.8496,1.8574,1.8528,0,0,0,0,0,0,0,0,0,0,1.8468,1.8455,1.8417,1.8418,1.8435,1.8495,1.8496,1.8525,1.8531,1.8548,0,1.8565,0,1.8572,1.8581,1.8581,0,0,0,1.8433,1.8451,1.8466,1.8418,1.8436,1.8495,1.8467,1.8528,1.8534,1.8555,1.8566,1.8569,1.8573,1.8582,1.8582,1.8691,1.8692,0,0,1.8429,1.8428,1.8462,1.847,1.8462,1.8465,1.8469,1.8532,1.8543,1.8566,1.8571,1.8574,1.8582,1.8583,1.8691,1.8691,0,0,0,1.8421,1.8426,1.8439,1.8467,1.8478,1.8467,1.8472,1.8541,1.8545,1.8572,1.8575,1.8583,1.8584,1.869,1.8691,1.8719,0,0,0,1.8419,1.8421,1.8438,1.8438,1.8477,1.851,1.8479,1.8541,1.8548,1.8575,1.8583,1.8584,1.8689,1.869,1.8717,1.8732,0,0,0,1.8412,1.842,1.843,1.8438,1.8464,1.8509,1.8517,1.8542,1.855,1.8581,1.8585,1.8689,1.869,1.8715,1.8729,1.8761,0,0,0,1.8404,1.8453,1.843,1.8486,1.8464,1.8527,1.8517,1.8564,1.8594,1.8583,1.8689,1.8691,1.8715,1.8727,1.8759,1.8787,1.8799,0,0,1.8465,1.846,1.8494,1.8475,1.8542,1.8518,1.8589,1.8617,1.862,1.8667,1.867,1.8718,1.8729,1.8761,1.8867,1.8877,0,0,0,1.8512,1.8536,1.8554,1.8584,1.8608,1.8629,1.8647,1.8657,1.8698,1.8644,1.8738,1.8745,1.8763,1.8777,1.8785,1.8801,1.8697,1.8697,1.8697,1.8596,1.8599,1.8655,1.8666,1.8694,1.8713,1.8736,1.8754,1.8747,1.8769,1.8783,1.8847,1.8863,1.8869,1.8886,1.8799,1.8799,1.8799,1.8799,1.8685,1.8719,1.8712,1.8763,1.8766,1.8808,1.8828,1.8823,1.8862,1.8837,1.8853,1.8825,1.888,1.8894,1.8801,1.8801,1.8801,1.88,1.88,1.874,1.8757,1.877,1.8814,1.8848,1.8857,1.8896,1.8897,1.8898,1.8914,1.8929,1.8928,1.8928,1.8922,1.8922,1.8922,1.8922,1.8922,1.8922,1.8791,1.8805,1.8838,1.8869,1.8889,1.8915,1.8935,1.8954,1.8975,1.8973,1.8973,1.8965,1.8885,1.8864,1.8926,1.8925,1.8925,1.8925,1.8924,1.8879,1.886,1.8911,1.8931,1.8968,1.9001,1.9003,1.9042,1.9058,1.9077,1.9066,1.9007,1.9001,1.8995,1.8978,1.9065,1.9065,1.9065,1.9065,1.8924,1.8923,1.8976,1.9008,1.9039,1.9047,1.9104,1.9121,1.9135,1.9145,1.9133,1.9111,1.9104,1.9102,1.9094,1.9078,1.9189,1.9189,1.9189,1.8979,1.898,1.9029,1.9044,1.9073,1.9098,1.9152,1.9189,1.92,1.9194,1.9153,1.9147,1.9112,1.91,1.9091,1.9078,1.9049,0,0]}]]